Hayward, WI

9:07 PM CDT on August 29, 2016 (GMT -0500)
Sawyer County

Weather History for KHYR - October, 2013

Change the Weather History Date:

Thursday, October 3, 2013

  Actual Average Record
Temperature  
Mean Temperature 54 °F -  
Max Temperature 57 °F 67 °F 82 °F (1997)
Min Temperature 51 °F 37 °F 21 °F (1999)
Degree Days  
Heating Degree Days 11    
Growing Degree Days 4 (Base 50)    
Moisture  
Dew Point 52 °F    
Average Humidity 94    
Maximum Humidity 100    
Minimum Humidity 87    
Precipitation  
Precipitation 0.59 in - - ()
Sea Level Pressure  
Sea Level Pressure 29.94 in    
Wind  
Wind Speed 5 mph (NE)    
Max Wind Speed 10 mph    
Max Gust Speed -    
Visibility 7 miles    
Events Rain , Thunderstorm    
Averages and records for this station are not official NWS values.
T = Trace of Precipitation, MM = Missing Value Source: NWS Daily Summary

Daily Weather History Graph

Daily Weather History Graph

Search for Another Location

Airport or City:

Trip Planner

Search our weather history database for the weather conditions in past years. The results will help you decide how hot, cold, wet, or windy it might be!

Date:

Astronomy

Oct. 03, 2013 Rise Set
Actual Time 7:07 AM CDT 6:41 PM CDT
Civil Twilight 6:37 AM CDT 7:11 PM CDT
Nautical Twilight 6:02 AM CDT 7:45 PM CDT
Astronomical Twilight 5:27 AM CDT 8:20 PM CDT
Moon 5:38 AM CDT (10/3) 5:51 PM CDT (10/3)
Length of Visible Light 12h 33m
Length of Day
11h 34m
Waning Crescent, 2% of the Moon is Illuminated
Oct 3
Waning Crescent
Oct 4
New
Oct 11
First Quarter
Oct 18
Full
Oct 26
Last Quarter

Hourly Weather History & Observations

Time (CDT) Temp. Dew Point Humidity Pressure Visibility Wind Dir Wind Speed Gust Speed Precip Events Conditions
12:42 AM 51.8 °F 50.0 °F 94% 29.95 in 10.0 mi ENE 6.9 mph - 0.03 in Rain Light Rain
12:53 AM 52.0 °F 50.0 °F 93% 29.96 in 10.0 mi ENE 4.6 mph - 0.03 in Rain Light Rain
1:15 AM 51.8 °F 50.0 °F 94% 29.95 in 10.0 mi NE 3.5 mph - 0.01 in   Overcast
1:23 AM 51.8 °F 50.0 °F 94% 29.95 in 10.0 mi NE 4.6 mph - 0.01 in   Overcast
1:53 AM 52.0 °F 51.1 °F 97% 29.94 in 10.0 mi NE 3.5 mph - 0.01 in   Overcast
2:51 AM 51.8 °F 51.8 °F 100% 29.92 in 10.0 mi Calm Calm - N/A   Overcast
2:53 AM 52.0 °F 51.1 °F 97% 29.92 in 10.0 mi NE 3.5 mph - N/A   Overcast
3:53 AM 52.0 °F 51.1 °F 97% 29.93 in 10.0 mi Variable 3.5 mph - N/A   Overcast
4:44 AM 51.8 °F 51.8 °F 100% 29.93 in 10.0 mi Variable 3.5 mph - N/A   Overcast
4:53 AM 52.0 °F 51.1 °F 97% 29.93 in 10.0 mi Calm Calm - N/A   Overcast
5:53 AM 52.0 °F 51.1 °F 97% 29.94 in 10.0 mi NE 4.6 mph - N/A   Overcast
6:31 AM 53.6 °F 51.8 °F 94% 29.95 in 7.0 mi Variable 3.5 mph - N/A   Overcast
6:53 AM 52.0 °F 51.1 °F 97% 29.96 in 5.0 mi Variable 3.5 mph - 0.00 in Rain Light Rain
7:53 AM 52.0 °F 51.1 °F 97% 29.97 in 3.0 mi NE 3.5 mph - 0.00 in   Overcast
8:40 AM 51.8 °F 51.8 °F 100% 29.95 in 2.5 mi Calm Calm - N/A   Overcast
8:53 AM 53.1 °F 52.0 °F 96% 29.96 in 2.5 mi NE 3.5 mph - N/A   Overcast
9:53 AM 53.1 °F 52.0 °F 96% 29.95 in 2.5 mi NNE 3.5 mph - 0.01 in   Overcast
10:05 AM 53.6 °F 51.8 °F 94% 29.94 in 3.0 mi NE 6.9 mph - N/A   Overcast
10:53 AM 54.0 °F 53.1 °F 97% 29.96 in 10.0 mi NE 4.6 mph - N/A   Overcast
11:53 AM 55.9 °F 54.0 °F 93% 29.96 in 10.0 mi ENE 5.8 mph - N/A   Overcast
12:03 PM 57.2 °F 53.6 °F 88% 29.94 in 10.0 mi NE 5.8 mph - N/A   Overcast
12:22 PM 55.4 °F 53.6 °F 94% 29.93 in 10.0 mi ENE 10.4 mph - N/A   Overcast
12:31 PM 55.4 °F 53.6 °F 94% 29.93 in 10.0 mi ENE 8.1 mph - N/A   Overcast
12:43 PM 55.4 °F 53.6 °F 94% 29.94 in 10.0 mi East 9.2 mph - N/A   Overcast
12:53 PM 55.9 °F 53.1 °F 90% 29.96 in 10.0 mi NE 5.8 mph - N/A   Overcast
1:53 PM 57.0 °F 53.1 °F 87% 29.94 in 10.0 mi ENE 6.9 mph - N/A   Overcast
2:11 PM 57.2 °F 53.6 °F 88% 29.91 in 10.0 mi ENE 10.4 mph - N/A Thunderstorm Overcast
2:39 PM 55.4 °F 51.8 °F 88% 29.91 in 10.0 mi NE 6.9 mph - N/A   Overcast
2:51 PM 57.2 °F 53.6 °F 88% 29.90 in 10.0 mi Variable 5.8 mph - N/A   Overcast
2:53 PM 57.0 °F 53.1 °F 87% 29.91 in 10.0 mi Variable 5.8 mph - N/A   Overcast
3:04 PM 55.4 °F 51.8 °F 88% 29.91 in 10.0 mi Variable 3.5 mph - N/A Thunderstorm Overcast
3:20 PM 53.6 °F 53.6 °F 100% 29.94 in 2.5 mi Variable 3.5 mph - 0.06 in Rain , Thunderstorm Light Thunderstorms and Rain
3:32 PM 53.6 °F 51.8 °F 94% 29.94 in 1.5 mi Variable 5.8 mph - 0.19 in Rain , Thunderstorm Heavy Thunderstorms and Rain
3:38 PM 53.6 °F 51.8 °F 94% 29.93 in 3.0 mi NE 6.9 mph - 0.19 in Rain , Thunderstorm Light Thunderstorms and Rain
3:53 PM 54.0 °F 53.1 °F 97% 29.96 in 3.0 mi NNE 4.6 mph - 0.22 in Rain , Thunderstorm Rain
3:55 PM 53.6 °F 53.6 °F 100% 29.94 in 2.5 mi NE 4.6 mph - 0.00 in Rain Rain
4:20 PM 53.6 °F 51.8 °F 94% 29.94 in 3.0 mi NE 5.8 mph - 0.07 in Rain Rain
4:27 PM 53.6 °F 51.8 °F 94% 29.94 in 2.0 mi NE 6.9 mph - 0.08 in Rain Rain
4:37 PM 53.6 °F 51.8 °F 94% 29.94 in 3.0 mi Calm Calm - 0.10 in Rain Rain
4:45 PM 53.6 °F 51.8 °F 94% 29.94 in 2.5 mi NNE 5.8 mph - 0.12 in Rain Light Rain
4:53 PM 53.1 °F 52.0 °F 96% 29.96 in 4.0 mi Variable 4.6 mph - 0.14 in Rain Rain
5:23 PM 53.6 °F 51.8 °F 94% 29.95 in 10.0 mi Variable 4.6 mph - 0.02 in Rain Light Rain
5:53 PM 53.1 °F 52.0 °F 96% 29.96 in 6.0 mi Variable 3.5 mph - 0.04 in Rain Light Rain
6:36 PM 53.6 °F 51.8 °F 94% 29.94 in 2.5 mi NE 5.8 mph - 0.06 in Rain Heavy Rain
6:51 PM 51.8 °F 51.8 °F 100% 29.94 in 4.0 mi Variable 4.6 mph - 0.11 in Rain Rain
6:53 PM 52.0 °F 51.1 °F 97% 29.96 in 5.0 mi Variable 4.6 mph - 0.11 in Rain Rain
7:04 PM 53.6 °F 51.8 °F 94% 29.95 in 8.0 mi NE 6.9 mph - 0.02 in Rain Light Rain
7:38 PM 53.6 °F 51.8 °F 94% 29.95 in 10.0 mi NE 5.8 mph - 0.02 in   Overcast
7:53 PM 53.1 °F 52.0 °F 96% 29.97 in 10.0 mi NE 5.8 mph - 0.02 in   Overcast
8:12 PM 53.6 °F 51.8 °F 94% 29.95 in 10.0 mi NE 5.8 mph - N/A   Overcast
8:53 PM 53.1 °F 52.0 °F 96% 29.97 in 10.0 mi Calm Calm - 0.01 in   Overcast
9:05 PM 53.6 °F 51.8 °F 94% 29.96 in 10.0 mi NNE 3.5 mph - N/A   Overcast
9:53 PM 54.0 °F 52.0 °F 93% 29.97 in 10.0 mi NE 8.1 mph - N/A   Overcast
11:53 PM 54.0 °F 52.0 °F 93% 30.00 in 10.0 mi Calm Calm - N/A   Overcast